Voltar ao catálogo

STARLINK-33902

AtivoComunicaçõesVLEO
NORAD 65920·PAYLOAD·🇺🇸 United States

Lançado Oct 8, 2025 de Vandenberg Space Force Base

Loading…

Próximas Passagens (próximas 24 horas)

TLE

AtualizadoSource: CelesTrak SupGP

Época: Sep 14, 2026, 20:53 UTC

1 65920C 25225L   26257.87062500  .00014400  00000+0  42628-3 0  2578
2 65920  53.1591   3.9224 0001140  92.1429 328.8145 15.34323566    11

Acompanhe STARLINK-33902 em tempo real com AllMySat

Download on the App Store